Regional Weather Roundup
Issued by NWS

Home | Current Version | Previous Version | Graphics & Text | Print | Product List | Glossary On
Versions: 1 2 3 4 5 6 7 8 9 10 11 12 13 14 15 16 17 18 19 20 21 22 23 24 25 26 27 28 29 30 31 32 33 34 35 36 37 38 39 40 41 42 43 44 45 46 47 48 49 50
000
ASUS43 KLMK 231810
RWRKY
KENTUCKY REGIONAL WEATHER ROUNDUP
NATIONAL WEATHER SERVICE LOUISVILLE KY
200 PM EDT THU OCT 23 2014

NOTE "FAIR" INDICATES FEW OR NO CLOUDS BELOW 12,000 FEET
WITH NO SIGNIFICANT WEATHER AND/OR OBSTRUCTIONS TO VISIBILITY.

KYZ001>023-026-027-061>063-070>075-231900-
WESTERN AND SOUTH CENTRAL KENTUCKY

CITY           SKY/WX    TMP DP  RH WIND       PRES   REMARKS
PADUCAH        PTSUNNY   60  45  57 VRB5      30.19F
HENDERSON      MOSUNNY  N/A N/A N/A S3        30.20F
OWENSBORO      SUNNY     60  43  53 NE5       30.20F
HOPKINSVILLE   MOSUNNY   60  42  50 E5        30.18F
BOWLING GREEN  SUNNY     61  42  49 CALM      30.19F
GLASGOW        SUNNY     60  41  50 N3        30.18F
$$

KYZ024-025-028>034-038-045-046-053-231900-
NORTH CENTRAL KENTUCKY

CITY           SKY/WX    TMP DP  RH WIND       PRES   REMARKS
LOUISVILLE/SDF PTSUNNY   59  40  49 CALM      30.20F
LOUISVILLE/LOU SUNNY     58  40  51 CALM      30.21F
FORT KNOX      SUNNY     58  40  51 VRB2      30.18F
$$

KYZ035>037-039>044-047>052-055>060-089>105-231900-
NORTHEAST KENTUCKY

CITY           SKY/WX    TMP DP  RH WIND       PRES   REMARKS
LEXINGTON      SUNNY     61  41  47 E6        30.19F
COVINGTON      MOSUNNY   58  39  49 CALM      30.20F
FRANKFORT      SUNNY     58  41  53 CALM      30.19F
$$

KYZ054-064>069-076>088-106>120-231900-
SOUTHEAST KENTUCKY

CITY           SKY/WX    TMP DP  RH WIND       PRES   REMARKS
JACKSON        MOSUNNY   56  39  53 CALM      30.18F
LONDON         SUNNY     60  40  47 E7        30.17F
SOMERSET       SUNNY     55  37  50 CALM      30.19F
MIDDLESBORO    SUNNY     59  40  49 N5        30.17F
MONTICELLO     CLEAR     60  43  53 E5        30.19F
$$




USA.gov is the U.S. government's official web portal to all federal, state and local government web resources and services.